Location: Star Dogged Moon Observatory
(29.7756°N, 82.0783°W)
Time: 12:16:00
(UTC-04:00)

ARGOS - Visible Passes

Search period start: 30 March 2015 00:00
Search period end: 09 April 2015 00:00
Orbit: 820 x 835 km, 98.7° (Epoch: 29 March)

Date Brightness Start Highest point End Pass type
(mag) Time Alt. Az. Time Alt. Az. Time Alt. Az.
30 Mar 5.6 22:25:32 11° NNE 22:25:32 11° NNE 22:25:45 10° NNE visible
01 Apr 6.0 23:29:25 11° NNW 23:29:25 11° NNW 23:29:38 10° NNW visible
02 Apr 5.7 23:10:37 13° N 23:10:37 13° N 23:11:13 10° N visible
03 Apr 5.6 22:51:48 14° N 22:51:48 14° N 22:52:37 10° N visible
04 Apr 5.4 22:33:00 14° NNE 22:33:00 14° NNE 22:33:49 10° N visible
05 Apr 5.4 22:14:11 12° NNE 22:14:11 12° NNE 22:14:47 10° NNE visible
06 Apr 5.9 23:36:54 13° NNW 23:36:54 13° NNW 23:37:25 10° NNW visible
07 Apr 5.6 23:18:05 16° NNW 23:18:05 16° NNW 23:19:05 10° NNW visible
08 Apr 5.4 22:59:17 18° N 22:59:17 18° N 23:00:33 10° N visible
